TimePST,TemperatureF,Dew PointF,Humidity,Sea Level PressureIn,VisibilityMPH,Wind Direction,Wind SpeedMPH,Gust SpeedMPH,PrecipitationIn,Events,Conditions,WindDirDegrees,DateUTC
12:53 AM,37.9,30.9,76,30.21,10.0,South,5.8,-,N/A,,Mostly Cloudy,180,2012-02-26 08:53:00
1:53 AM,39.0,30.9,73,30.22,10.0,South,5.8,-,N/A,,Scattered Clouds,180,2012-02-26 09:53:00
2:00 AM,39.2,32.0,75,30.22,10.0,South,8.1,-,N/A,,Overcast,190,2012-02-26 10:00:00
2:53 AM,37.9,32.0,79,30.21,10.0,South,5.8,-,N/A,,Overcast,180,2012-02-26 10:53:00
3:53 AM,37.9,32.0,79,30.19,10.0,South,5.8,-,N/A,,Overcast,180,2012-02-26 11:53:00
4:53 AM,37.4,32.0,81,30.18,10.0,Variable,6.9,-,N/A,,Mostly Cloudy,0,2012-02-26 12:53:00
5:53 AM,37.9,32.0,79,30.17,10.0,SSE,4.6,-,N/A,,Overcast,150,2012-02-26 13:53:00
6:53 AM,37.9,32.0,79,30.17,10.0,South,4.6,-,N/A,,Overcast,190,2012-02-26 14:53:00
7:53 AM,37.0,30.9,79,30.17,10.0,Calm,Calm,-,N/A,,Mostly Cloudy,0,2012-02-26 15:53:00
8:53 AM,37.9,32.0,79,30.18,10.0,Calm,Calm,-,N/A,,Overcast,0,2012-02-26 16:53:00
9:53 AM,39.0,33.1,79,30.18,10.0,WSW,3.5,-,N/A,,Mostly Cloudy,240,2012-02-26 17:53:00
10:53 AM,39.9,30.0,68,30.17,10.0,Calm,Calm,-,N/A,,Mostly Cloudy,0,2012-02-26 18:53:00
11:53 AM,39.0,28.9,67,30.17,10.0,ENE,4.6,-,N/A,,Overcast,60,2012-02-26 19:53:00
12:53 PM,37.9,32.0,79,30.16,10.0,ESE,8.1,-,N/A,,Mostly Cloudy,120,2012-02-26 20:53:00
1:53 PM,39.0,30.9,73,30.15,10.0,South,3.5,-,N/A,,Mostly Cloudy,180,2012-02-26 21:53:00
2:53 PM,41.0,28.0,60,30.14,10.0,Calm,Calm,-,N/A,,Scattered Clouds,0,2012-02-26 22:53:00
3:53 PM,41.0,28.0,60,30.14,10.0,NE,3.5,-,N/A,,Overcast,50,2012-02-26 23:53:00
4:53 PM,41.0,24.1,51,30.14,10.0,NW,8.1,-,N/A,,Mostly Cloudy,320,2012-02-27 00:53:00
5:53 PM,39.0,26.1,60,30.15,10.0,North,5.8,-,N/A,,Scattered Clouds,350,2012-02-27 01:53:00
6:53 PM,37.9,27.0,65,30.16,10.0,Calm,Calm,-,N/A,,Scattered Clouds,0,2012-02-27 02:53:00
7:53 PM,37.0,27.0,67,30.17,10.0,North,6.9,-,N/A,,Mostly Cloudy,350,2012-02-27 03:53:00
8:53 PM,37.0,26.1,65,30.17,10.0,North,5.8,-,N/A,,Scattered Clouds,360,2012-02-27 04:53:00
9:53 PM,36.0,25.0,64,30.18,10.0,Calm,Calm,-,N/A,,Clear,0,2012-02-27 05:53:00
10:53 PM,35.1,26.1,70,30.18,10.0,Calm,Calm,-,N/A,,Clear,0,2012-02-27 06:53:00
11:53 PM,35.1,27.0,72,30.18,10.0,North,3.5,-,N/A,,Clear,10,2012-02-27 07:53:00